| time (UTC) | temp F | wind direction | speed MPH | gust MPH | rain 1hr in | rain 24hr in | rain mn in | humidity % | barometer mb |
| 20260507000039 | 49 | 248 | 0.0 | 0.0 | 0.05 | 1.54 | 0.07 | 94 | 1012.9 |
| 20260506234549 | 49 | 248 | 0.0 | 0.0 | 0.06 | 1.54 | 0.07 | 94 | 1012.9 |
| 20260506233003 | 48 | 248 | 0.0 | 0.0 | 0.06 | 1.54 | 0.06 | 93 | 1013.0 |
| 20260506231519 | 49 | 248 | 0.0 | 0.0 | 0.04 | 1.51 | 0.04 | 93 | 1012.9 |
| 20260506230028 | 48 | 248 | 0.0 | 0.0 | 0.02 | 1.50 | 0.02 | 93 | 1012.9 |
| 20260506224553 | 48 | 248 | 0.0 | 0.0 | 0.02 | 1.48 | 0.01 | 93 | 1012.8 |
| 20260506223011 | 49 | 248 | 0.0 | 0.0 | 0.02 | 1.48 | 0.01 | 93 | 1012.7 |
| 20260506221523 | 49 | 248 | 0.0 | 0.0 | 0.01 | 1.47 | 0.00 | 93 | 1012.6 |
| 20260506220108 | 49 | 248 | 0.0 | 0.0 | 0.01 | 1.47 | 0.00 | 93 | 1012.5 |
| 20260506214511 | 48 | 248 | 0.0 | 0.0 | 0.00 | 1.46 | 1.46 | 93 | 1012.4 |
| 20260506213023 | 48 | 248 | 0.0 | 0.0 | 0.00 | 1.46 | 1.46 | 93 | 1012.4 |
| 20260506211548 | 48 | 248 | 0.0 | 0.0 | 0.00 | 1.46 | 1.46 | 93 | 1012.4 |
| 20260506210005 | 48 | 248 | 0.0 | 0.0 | 0.01 | 1.46 | 1.46 | 93 | 1012.3 |
| 20260506204528 | 48 | 248 | 0.0 | 0.0 | 0.02 | 1.46 | 1.46 | 93 | 1012.3 |
| 20260506203121 | 48 | 248 | 0.0 | 0.0 | 0.02 | 1.46 | 1.46 | 93 | 1012.1 |
| 20260506201600 | 48 | 248 | 0.0 | 0.0 | 0.03 | 1.46 | 1.46 | 93 | 1012.1 |
| 20260506200012 | 48 | 248 | 0.0 | 0.0 | 0.04 | 1.46 | 1.46 | 93 | 1012.0 |
| 20260506194526 | 48 | 248 | 0.0 | 0.0 | 0.05 | 1.45 | 1.45 | 92 | 1011.8 |
| 20260506193036 | 48 | 248 | 0.0 | 0.0 | 0.05 | 1.44 | 1.44 | 93 | 1011.7 |
| 20260506191559 | 48 | 248 | 0.0 | 0.0 | 0.04 | 1.43 | 1.43 | 93 | 1011.5 |
| 20260506190025 | 49 | 248 | 0.0 | 0.0 | 0.03 | 1.42 | 1.42 | 92 | 1011.5 |
| 20260506184541 | 49 | 248 | 0.0 | 0.0 | 0.02 | 1.40 | 1.40 | 92 | 1011.3 |
| 20260506183049 | 49 | 248 | 0.0 | 1.0 | 0.02 | 1.39 | 1.39 | 92 | 1011.2 |
| 20260506181502 | 49 | 248 | 0.0 | 1.0 | 0.02 | 1.39 | 1.39 | 92 | 1011.0 |
| 20260506180025 | 49 | 248 | 0.0 | 2.0 | 0.03 | 1.39 | 1.39 | 92 | 1010.9 |
| 20260506174604 | 49 | 240 | 0.0 | 0.0 | 0.06 | 1.38 | 1.38 | 92 | 1010.8 |
| 20260506173100 | 49 | 241 | 0.0 | 0.0 | 0.09 | 1.38 | 1.38 | 92 | 1010.6 |
| 20260506171516 | 49 | 240 | 0.0 | 1.0 | 0.13 | 1.37 | 1.37 | 91 | 1010.4 |
| 20260506170022 | 49 | 240 | 0.0 | 3.0 | 0.13 | 1.35 | 1.35 | 91 | 1010.5 |
| 20260506164549 | 50 | 221 | 0.0 | 2.0 | 0.11 | 1.31 | 1.31 | 91 | 1010.4 |
| 20260506163006 | 51 | 159 | 0.0 | 7.0 | 0.09 | 1.28 | 1.28 | 90 | 1010.3 |
| 20260506161538 | 53 | 84 | 0.0 | 0.0 | 0.06 | 1.24 | 1.24 | 91 | 1010.2 |
| 20260506160110 | 53 | 248 | 0.0 | 0.0 | 0.06 | 1.22 | 1.22 | 91 | 1009.8 |
| 20260506154527 | 53 | 249 | 0.0 | 0.0 | 0.05 | 1.20 | 1.20 | 91 | 1009.7 |
| 20260506153040 | 53 | 249 | 0.0 | 0.0 | 0.05 | 1.19 | 1.19 | 91 | 1009.6 |
| 20260506151514 | 53 | 222 | 0.0 | 0.0 | 0.05 | 1.17 | 1.17 | 90 | 1009.5 |
| 20260506150052 | 53 | 253 | 0.0 | 0.0 | 0.04 | 1.17 | 1.17 | 90 | 1009.5 |
| 20260506144511 | 53 | 263 | 0.0 | 0.0 | 0.03 | 1.15 | 1.15 | 90 | 1009.6 |
| 20260506143015 | 53 | 190 | 0.0 | 0.0 | 0.02 | 1.13 | 1.13 | 89 | 1009.5 |
| 20260506141532 | 53 | 229 | 0.0 | 0.0 | 0.00 | 1.12 | 1.12 | 89 | 1009.6 |
| 20260506134525 | 54 | 277 | 0.0 | 7.0 | 0.00 | 1.12 | 1.12 | 89 | 1009.7 |
| 20260506133042 | 54 | 255 | 0.0 | 7.0 | 0.00 | 1.12 | 1.12 | 88 | 1009.6 |
| 20260506131543 | 54 | 264 | 0.0 | 3.0 | 0.01 | 1.12 | 1.12 | 90 | 1009.7 |
| 20260506124510 | 53 | 259 | 1.0 | 7.0 | 0.09 | 1.12 | 1.12 | 91 | 1009.4 |
| 20260506123025 | 52 | 270 | 1.0 | 8.0 | 0.13 | 1.12 | 1.12 | 91 | 1009.3 |
| 20260506121545 | 52 | 248 | 0.0 | 4.0 | 0.16 | 1.12 | 1.12 | 91 | 1009.4 |
| 20260506120051 | 53 | 226 | 0.0 | 7.0 | 0.11 | 1.07 | 1.06 | 91 | 1009.3 |
| 20260506114501 | 52 | 243 | 0.0 | 0.0 | 0.09 | 1.10 | 1.03 | 92 | 1009.3 |
| 20260506113025 | 52 | 219 | 0.0 | 4.0 | 0.08 | 1.06 | 0.99 | 91 | 1009.3 |
| 20260506111542 | 53 | 237 | 0.0 | 0.0 | 0.07 | 1.03 | 0.96 | 92 | 1009.3 |
| 20260506110009 | 53 | 272 | 0.0 | 2.0 | 0.13 | 1.02 | 0.95 | 92 | 1009.3 |
| 20260506104531 | 52 | 150 | 0.0 | 0.0 | 0.26 | 1.01 | 0.94 | 93 | 1009.2 |
| 20260506103047 | 51 | 151 | 0.0 | 0.0 | 0.36 | 0.98 | 0.91 | 93 | 1009.2 |
| 20260506101637 | 51 | 151 | 0.0 | 0.0 | 0.48 | 0.96 | 0.89 | 92 | 1009.1 |
| 20260506100011 | 51 | 151 | 0.0 | 0.0 | 0.64 | 0.90 | 0.83 | 92 | 1009.0 |
| 20260506094536 | 51 | 279 | 0.0 | 4.0 | 0.55 | 0.75 | 0.68 | 92 | 1008.6 |
| 20260506093002 | 52 | 313 | 0.0 | 3.0 | 0.48 | 0.61 | 0.54 | 92 | 1008.4 |
| 20260506091511 | 52 | 214 | 0.0 | 0.0 | 0.37 | 0.47 | 0.40 | 92 | 1008.2 |
| 20260506090027 | 52 | 219 | 0.0 | 0.0 | 0.17 | 0.25 | 0.18 | 92 | 1008.0 |
| 20260506084625 | 52 | 259 | 0.0 | 0.0 | 0.11 | 0.19 | 0.12 | 91 | 1007.8 |
| 20260506083032 | 52 | 263 | 0.0 | 1.0 | 0.05 | 0.13 | 0.06 | 91 | 1007.7 |
| 20260506081555 | 53 | 170 | 0.0 | 0.0 | 0.02 | 0.09 | 0.02 | 90 | 1007.6 |
| 20260506073052 | 53 | 238 | 0.0 | 1.0 | 0.01 | 0.08 | 0.01 | 90 | 1007.0 |
| 20260506071505 | 53 | 238 | 0.0 | 1.0 | 0.00 | 0.07 | 0.00 | 91 | 1007.0 |
| 20260506061557 | 52 | 238 | 0.0 | 0.0 | 0.00 | 0.07 | 0.00 | 94 | 1007.0 |
| 20260506044542 | 49 | 236 | 0.0 | 0.0 | 0.00 | 0.13 | 0.00 | 94 | 1007.1 |
| 20260506043053 | 49 | 238 | 0.0 | 0.0 | 0.00 | 0.13 | 0.00 | 94 | 1007.1 |
| 20260506041606 | 49 | 238 | 0.0 | 2.0 | 0.00 | 0.13 | 0.00 | 94 | 1007.1 |
| 20260506040013 | 49 | 238 | 0.0 | 0.0 | 0.00 | 0.13 | 0.00 | 94 | 1007.0 |
| 20260506034533 | 49 | 238 | 0.0 | 0.0 | 0.00 | 0.19 | 0.00 | 93 | 1007.1 |
| 20260506033040 | 49 | 238 | 0.0 | 0.0 | 0.00 | 0.19 | 0.00 | 93 | 1007.1 |
| 20260506031548 | 49 | 238 | 0.0 | 0.0 | 0.00 | 0.19 | 0.00 | 93 | 1007.3 |
| 20260506030105 | 49 | 238 | 0.0 | 0.0 | 0.00 | 0.19 | 0.00 | 94 | 1007.5 |
| 20260506024511 | 50 | 238 | 0.0 | 0.0 | 0.00 | 0.25 | 0.00 | 93 | 1007.5 |
| 20260506023035 | 50 | 238 | 0.0 | 0.0 | 0.00 | 0.25 | 0.00 | 93 | 1007.8 |
| 20260506021511 | 50 | 238 | 0.0 | 0.0 | 0.00 | 0.25 | 0.00 | 93 | 1007.9 |
| 20260506020027 | 50 | 238 | 0.0 | 0.0 | 0.00 | 0.25 | 0.00 | 94 | 1008.0 |
| 20260506014536 | 50 | 238 | 0.0 | 0.0 | 0.00 | 0.28 | 0.00 | 94 | 1008.2 |
| 20260506013056 | 50 | 238 | 0.0 | 0.0 | 0.00 | 0.28 | 0.00 | 94 | 1008.2 |
| 20260506011518 | 51 | 238 | 0.0 | 0.0 | 0.00 | 0.28 | 0.00 | 93 | 1008.5 |
| 20260506010018 | 51 | 238 | 0.0 | 0.0 | 0.00 | 0.28 | 0.00 | 94 | 1008.7 |
| 20260506004543 | 51 | 238 | 0.0 | 0.0 | 0.00 | 0.30 | 0.00 | 94 | 1008.8 |
| 20260506003100 | 50 | 238 | 0.0 | 0.0 | 0.00 | 0.30 | 0.00 | 94 | 1008.8 |
| 20260506001521 | 49 | 238 | 0.0 | 0.0 | 0.00 | 0.30 | 0.00 | 94 | 1008.9 |